Location: Bremen
(53.0793°N, 8.8017°E)
Time: 20:29:58
(UTC+02:00)

Vanguard 1 Rocket - Visible Passes

Search period start: 19 April 2024 00:00
Search period end: 29 April 2024 00:00
Orbit: 652 x 4219 km, 34.3° (Epoch: 18 April)

Date Brightness Start Highest point End Pass type
(mag) Time Alt. Az. Time Alt. Az. Time Alt. Az.
19 Apr 9.4 22:09:51 10° SW 22:15:02 21° S 22:18:52 17° SE visible
20 Apr 10.0 00:33:20 10° SW 00:36:03 16° SW 00:36:03 16° SW visible
20 Apr 9.7 23:22:11 10° SW 23:27:55 21° S 23:27:56 21° S visible
21 Apr 9.4 22:11:33 10° SW 22:16:15 19° S 22:19:50 16° SSE visible
22 Apr 10.2 00:35:51 10° SW 00:37:02 12° SW 00:37:02 12° SW visible
22 Apr 9.8 23:24:19 10° SW 23:28:56 17° S 23:28:56 17° S visible
23 Apr 9.5 22:13:27 10° SW 22:17:31 16° S 22:20:50 14° SSE visible
24 Apr 9.9 23:27:02 10° SW 23:29:57 13° SSW 23:29:57 13° SSW visible
25 Apr 9.6 22:15:42 10° SSW 22:18:47 13° S 22:21:53 11° SSE visible
